owner,sensor,date,latitude,longitude,vertical_datum,mass_concentration_of_oxygen_in_sea_water,qcFlag 
SCCF RECON,ioos:station:SCCF:51:1,2009-07-01T00:00:00Z,26.5545,-82.1715,1.848,5.38,1111122 
SCCF RECON,ioos:station:SCCF:51:1,2009-07-01T01:00:00Z,26.5545,-82.1715,1.919,5.2,1111122 
SCCF RECON,ioos:station:SCCF:51:1,2009-07-01T02:00:00Z,26.5545,-82.1715,1.891,4.77,1111122 
SCCF RECON,ioos:station:SCCF:51:1,2009-07-01T03:00:00Z,26.5545,-82.1715,1.873,4.77,1111122 
SCCF RECON,ioos:station:SCCF:51:1,2009-07-01T04:00:00Z,26.5545,-82.1715,1.862,4.35,1111122 
SCCF RECON,ioos:station:SCCF:51:1,2009-07-01T05:00:00Z,26.5545,-82.1715,1.873,4.45,1111122 
SCCF RECON,ioos:station:SCCF:51:1,2009-07-01T06:00:00Z,26.5545,-82.1715,1.881,4.3,1111122 
SCCF RECON,ioos:station:SCCF:51:1,2009-07-01T07:00:00Z,26.5545,-82.1715,1.866,4.34,1111122 
SCCF RECON,ioos:station:SCCF:51:1,2009-07-01T08:00:00Z,26.5545,-82.1715,1.89,4.74,1111122 
SCCF RECON,ioos:station:SCCF:51:1,2009-07-01T09:00:00Z,26.5545,-82.1715,1.944,4.77,1111122 
SCCF RECON,ioos:station:SCCF:51:1,2009-07-01T10:00:00Z,26.5545,-82.1715,2.012,4.47,1111122 
SCCF RECON,ioos:station:SCCF:51:1,2009-07-01T11:00:00Z,26.5545,-82.1715,2.062,4.89,1111122 
SCCF RECON,ioos:station:SCCF:51:1,2009-07-01T12:00:00Z,26.5545,-82.1715,2.119,4.81,1111122 
SCCF RECON,ioos:station:SCCF:51:1,2009-07-01T13:00:00Z,26.5545,-82.1715,2.158,4.43,1111122 
SCCF RECON,ioos:station:SCCF:51:1,2009-07-01T14:00:00Z,26.5545,-82.1715,2.145,4.9,1111122 
SCCF RECON,ioos:station:SCCF:51:1,2009-07-01T15:00:00Z,26.5545,-82.1715,2.094,4.78,1111122 
SCCF RECON,ioos:station:SCCF:51:1,2009-07-01T16:00:00Z,26.5545,-82.1715,2.007,4.93,1111122 
SCCF RECON,ioos:station:SCCF:51:1,2009-07-01T17:00:00Z,26.5545,-82.1715,1.897,5.09,1111122 
SCCF RECON,ioos:station:SCCF:51:1,2009-07-01T18:00:00Z,26.5545,-82.1715,1.769,5.26,1111122 
SCCF RECON,ioos:station:SCCF:51:1,2009-07-01T19:00:00Z,26.5545,-82.1715,1.665,5.57,1111122 
SCCF RECON,ioos:station:SCCF:51:1,2009-07-01T20:00:00Z,26.5545,-82.1715,1.609,5.83,1111122 
SCCF RECON,ioos:station:SCCF:51:1,2009-07-01T21:00:00Z,26.5545,-82.1715,1.592,6.06,1111122 
SCCF RECON,ioos:station:SCCF:51:1,2009-07-01T22:00:00Z,26.5545,-82.1715,1.644,5.76,1111122 
SCCF RECON,ioos:station:SCCF:51:1,2009-07-01T23:00:00Z,26.5545,-82.1715,1.777,5.73,1111122 
SCCF RECON,ioos:station:SCCF:51:1,2009-07-02T00:00:00Z,26.5545,-82.1715,1.836,5.89,1111122 
SCCF RECON,ioos:station:SCCF:51:1,2009-07-02T01:00:00Z,26.5545,-82.1715,1.856,4.97,1111122 
SCCF RECON,ioos:station:SCCF:51:1,2009-07-02T02:00:00Z,26.5545,-82.1715,1.853,4.55,1111122 
SCCF RECON,ioos:station:SCCF:51:1,2009-07-02T03:00:00Z,26.5545,-82.1715,1.844,4.47,1111122 
SCCF RECON,ioos:station:SCCF:51:1,2009-07-02T04:00:00Z,26.5545,-82.1715,1.863,4.92,1111122 
SCCF RECON,ioos:station:SCCF:51:1,2009-07-02T05:00:00Z,26.5545,-82.1715,1.914,5.1,1111122 
SCCF RECON,ioos:station:SCCF:51:1,2009-07-02T06:00:00Z,26.5545,-82.1715,1.955,4.84,1111122 
SCCF RECON,ioos:station:SCCF:51:1,2009-07-02T07:00:00Z,26.5545,-82.1715,1.985,4.57,1111122 
SCCF RECON,ioos:station:SCCF:51:1,2009-07-02T08:00:00Z,26.5545,-82.1715,1.994,4.54,1111122 
SCCF RECON,ioos:station:SCCF:51:1,2009-07-02T09:00:00Z,26.5545,-82.1715,2.009,5.06,1111122 
SCCF RECON,ioos:station:SCCF:51:1,2009-07-02T10:00:00Z,26.5545,-82.1715,2.039,5.0,1111122 
SCCF RECON,ioos:station:SCCF:51:1,2009-07-02T11:00:00Z,26.5545,-82.1715,2.092,4.92,1111122 
SCCF RECON,ioos:station:SCCF:51:1,2009-07-02T12:00:00Z,26.5545,-82.1715,2.131,4.77,1111122 
SCCF RECON,ioos:station:SCCF:51:1,2009-07-02T13:00:00Z,26.5545,-82.1715,2.179,5.01,1111122 
SCCF RECON,ioos:station:SCCF:51:1,2009-07-02T14:00:00Z,26.5545,-82.1715,2.188,4.52,1111122 
SCCF RECON,ioos:station:SCCF:51:1,2009-07-02T15:00:00Z,26.5545,-82.1715,2.158,4.87,1111122 
SCCF RECON,ioos:station:SCCF:51:1,2009-07-02T16:00:00Z,26.5545,-82.1715,2.073,4.95,1111122 
SCCF RECON,ioos:station:SCCF:51:1,2009-07-02T17:00:00Z,26.5545,-82.1715,1.97,5.12,1111122 
SCCF RECON,ioos:station:SCCF:51:1,2009-07-02T18:00:00Z,26.5545,-82.1715,1.851,5.33,1111122 
SCCF RECON,ioos:station:SCCF:51:1,2009-07-02T19:00:00Z,26.5545,-82.1715,1.764,5.46,1111122 
SCCF RECON,ioos:station:SCCF:51:1,2009-07-02T20:00:00Z,26.5545,-82.1715,1.646,5.39,1111122 
SCCF RECON,ioos:station:SCCF:51:1,2009-07-02T21:00:00Z,26.5545,-82.1715,1.57,5.46,1111122 
SCCF RECON,ioos:station:SCCF:51:1,2009-07-02T22:00:00Z,26.5545,-82.1715,1.549,5.9,1111122 
SCCF RECON,ioos:station:SCCF:51:1,2009-07-02T23:00:00Z,26.5545,-82.1715,1.578,5.7,1111122 
SCCF RECON,ioos:station:SCCF:51:1,2009-07-03T00:00:00Z,26.5545,-82.1715,1.648,5.4,1111122 
SCCF RECON,ioos:station:SCCF:51:1,2009-07-03T01:00:00Z,26.5545,-82.1715,1.72,5.24,1111122 
SCCF RECON,ioos:station:SCCF:51:1,2009-07-03T02:00:00Z,26.5545,-82.1715,1.781,5.36,1111122 
SCCF RECON,ioos:station:SCCF:51:1,2009-07-03T03:00:00Z,26.5545,-82.1715,1.807,5.33,1111122 
SCCF RECON,ioos:station:SCCF:51:1,2009-07-03T04:00:00Z,26.5545,-82.1715,1.869,4.82,1111122 
SCCF RECON,ioos:station:SCCF:51:1,2009-07-03T05:00:00Z,26.5545,-82.1715,1.917,4.83,1111122 
SCCF RECON,ioos:station:SCCF:51:1,2009-07-03T06:00:00Z,26.5545,-82.1715,1.921,4.52,1111122 
SCCF RECON,ioos:station:SCCF:51:1,2009-07-03T07:00:00Z,26.5545,-82.1715,1.903,4.72,1111122 
SCCF RECON,ioos:station:SCCF:51:1,2009-07-03T08:00:00Z,26.5545,-82.1715,1.896,4.26,1111122 
SCCF RECON,ioos:station:SCCF:51:1,2009-07-03T09:00:00Z,26.5545,-82.1715,1.926,4.78,1111122 
SCCF RECON,ioos:station:SCCF:51:1,2009-07-03T10:00:00Z,26.5545,-82.1715,1.973,4.84,1111122 
SCCF RECON,ioos:station:SCCF:51:1,2009-07-03T11:00:00Z,26.5545,-82.1715,2.041,4.81,1111122 
SCCF RECON,ioos:station:SCCF:51:1,2009-07-03T12:00:00Z,26.5545,-82.1715,2.121,4.69,1111122 
SCCF RECON,ioos:station:SCCF:51:1,2009-07-03T13:00:00Z,26.5545,-82.1715,2.158,4.73,1111122 
SCCF RECON,ioos:station:SCCF:51:1,2009-07-03T14:00:00Z,26.5545,-82.1715,2.146,4.7,1111122 
SCCF RECON,ioos:station:SCCF:51:1,2009-07-03T15:00:00Z,26.5545,-82.1715,2.121,4.62,1111122 
SCCF RECON,ioos:station:SCCF:51:1,2009-07-03T16:00:00Z,26.5545,-82.1715,2.066,4.95,1111122 
SCCF RECON,ioos:station:SCCF:51:1,2009-07-03T17:00:00Z,26.5545,-82.1715,1.986,4.94,1111122 
SCCF RECON,ioos:station:SCCF:51:1,2009-07-03T18:00:00Z,26.5545,-82.1715,1.887,5.12,1111122 
SCCF RECON,ioos:station:SCCF:51:1,2009-07-03T19:00:00Z,26.5545,-82.1715,1.778,5.25,1111122 
SCCF RECON,ioos:station:SCCF:51:1,2009-07-03T20:00:00Z,26.5545,-82.1715,1.661,5.38,1111122 
SCCF RECON,ioos:station:SCCF:51:1,2009-07-03T21:00:00Z,26.5545,-82.1715,1.546,5.37,1111122 
SCCF RECON,ioos:station:SCCF:51:1,2009-07-03T22:00:00Z,26.5545,-82.1715,1.463,5.24,1111122 
SCCF RECON,ioos:station:SCCF:51:1,2009-07-03T23:00:00Z,26.5545,-82.1715,1.445,5.35,1111122 
SCCF RECON,ioos:station:SCCF:51:1,2009-07-04T00:00:00Z,26.5545,-82.1715,1.499,5.41,1111122 
SCCF RECON,ioos:station:SCCF:51:1,2009-07-04T01:00:00Z,26.5545,-82.1715,1.587,5.22,1111122 
SCCF RECON,ioos:station:SCCF:51:1,2009-07-04T02:00:00Z,26.5545,-82.1715,1.695,5.57,1111122 
SCCF RECON,ioos:station:SCCF:51:1,2009-07-04T03:00:00Z,26.5545,-82.1715,1.791,5.55,1111122 
SCCF RECON,ioos:station:SCCF:51:1,2009-07-04T04:00:00Z,26.5545,-82.1715,1.869,5.23,1111122 
SCCF RECON,ioos:station:SCCF:51:1,2009-07-04T05:00:00Z,26.5545,-82.1715,1.925,4.39,1111122 
SCCF RECON,ioos:station:SCCF:51:1,2009-07-04T06:00:00Z,26.5545,-82.1715,1.93,4.67,1111122 
SCCF RECON,ioos:station:SCCF:51:1,2009-07-04T07:00:00Z,26.5545,-82.1715,1.905,4.45,1111122 
SCCF RECON,ioos:station:SCCF:51:1,2009-07-04T08:00:00Z,26.5545,-82.1715,1.902,4.58,1111122 
SCCF RECON,ioos:station:SCCF:51:1,2009-07-04T09:00:00Z,26.5545,-82.1715,1.921,4.41,1111122 
SCCF RECON,ioos:station:SCCF:51:1,2009-07-04T10:00:00Z,26.5545,-82.1715,1.95,4.61,1111122 
SCCF RECON,ioos:station:SCCF:51:1,2009-07-04T11:00:00Z,26.5545,-82.1715,2.0,4.63,1111122 
SCCF RECON,ioos:station:SCCF:51:1,2009-07-04T12:00:00Z,26.5545,-82.1715,2.047,4.82,1111122 
SCCF RECON,ioos:station:SCCF:51:1,2009-07-04T13:00:00Z,26.5545,-82.1715,2.102,4.95,1111122 
SCCF RECON,ioos:station:SCCF:51:1,2009-07-04T14:00:00Z,26.5545,-82.1715,2.14,5.01,1111122 
SCCF RECON,ioos:station:SCCF:51:1,2009-07-04T15:00:00Z,26.5545,-82.1715,2.157,5.08,1111122 
SCCF RECON,ioos:station:SCCF:51:1,2009-07-04T16:00:00Z,26.5545,-82.1715,2.139,4.97,1111122 
SCCF RECON,ioos:station:SCCF:51:1,2009-07-04T17:00:00Z,26.5545,-82.1715,2.076,5.18,1111122 
SCCF RECON,ioos:station:SCCF:51:1,2009-07-04T18:00:00Z,26.5545,-82.1715,1.976,5.46,1111122 
SCCF RECON,ioos:station:SCCF:51:1,2009-07-04T19:00:00Z,26.5545,-82.1715,1.853,5.43,1111122 
SCCF RECON,ioos:station:SCCF:51:1,2009-07-04T20:00:00Z,26.5545,-82.1715,1.724,5.58,1111122 
SCCF RECON,ioos:station:SCCF:51:1,2009-07-04T21:00:00Z,26.5545,-82.1715,1.602,5.68,1111122 
SCCF RECON,ioos:station:SCCF:51:1,2009-07-04T22:00:00Z,26.5545,-82.1715,1.484,5.8,1111122 
SCCF RECON,ioos:station:SCCF:51:1,2009-07-04T23:00:00Z,26.5545,-82.1715,1.409,5.6,1111122 
SCCF RECON,ioos:station:SCCF:51:1,2009-07-05T00:00:00Z,26.5545,-82.1715,1.413,5.59,1111122 
SCCF RECON,ioos:station:SCCF:51:1,2009-07-05T01:00:00Z,26.5545,-82.1715,1.495,5.35,1111122 
SCCF RECON,ioos:station:SCCF:51:1,2009-07-05T02:00:00Z,26.5545,-82.1715,1.601,5.49,1111122 
SCCF RECON,ioos:station:SCCF:51:1,2009-07-05T03:00:00Z,26.5545,-82.1715,1.71,5.53,1111122 
SCCF RECON,ioos:station:SCCF:51:1,2009-07-05T04:00:00Z,26.5545,-82.1715,1.83,5.45,1111122 
SCCF RECON,ioos:station:SCCF:51:1,2009-07-05T05:00:00Z,26.5545,-82.1715,1.902,5.1,1111122 
SCCF RECON,ioos:station:SCCF:51:1,2009-07-05T06:00:00Z,26.5545,-82.1715,1.939,4.75,1111122 
SCCF RECON,ioos:station:SCCF:51:1,2009-07-05T07:00:00Z,26.5545,-82.1715,1.938,4.83,1111122 
SCCF RECON,ioos:station:SCCF:51:1,2009-07-05T08:00:00Z,26.5545,-82.1715,1.922,4.64,1111122 
SCCF RECON,ioos:station:SCCF:51:1,2009-07-05T09:00:00Z,26.5545,-82.1715,1.917,4.32,1111122 
SCCF RECON,ioos:station:SCCF:51:1,2009-07-05T10:00:00Z,26.5545,-82.1715,1.922,4.13,1111122 
SCCF RECON,ioos:station:SCCF:51:1,2009-07-05T11:00:00Z,26.5545,-82.1715,1.966,4.63,1111122 
SCCF RECON,ioos:station:SCCF:51:1,2009-07-05T12:00:00Z,26.5545,-82.1715,2.023,4.7,1111122 
SCCF RECON,ioos:station:SCCF:51:1,2009-07-05T13:00:00Z,26.5545,-82.1715,2.105,4.82,1111122 
SCCF RECON,ioos:station:SCCF:51:1,2009-07-05T14:00:00Z,26.5545,-82.1715,2.188,4.65,1111122 
SCCF RECON,ioos:station:SCCF:51:1,2009-07-05T15:00:00Z,26.5545,-82.1715,2.26,5.13,1111122 
SCCF RECON,ioos:station:SCCF:51:1,2009-07-05T16:00:00Z,26.5545,-82.1715,2.268,5.03,1111122 
SCCF RECON,ioos:station:SCCF:51:1,2009-07-05T17:00:00Z,26.5545,-82.1715,2.198,4.91,1111122 
SCCF RECON,ioos:station:SCCF:51:1,2009-07-05T18:00:00Z,26.5545,-82.1715,2.091,5.06,1111122 
SCCF RECON,ioos:station:SCCF:51:1,2009-07-05T19:00:00Z,26.5545,-82.1715,1.968,5.16,1111122 
SCCF RECON,ioos:station:SCCF:51:1,2009-07-05T20:00:00Z,26.5545,-82.1715,1.843,5.13,1111122 
SCCF RECON,ioos:station:SCCF:51:1,2009-07-05T21:00:00Z,26.5545,-82.1715,1.717,5.28,1111122 
SCCF RECON,ioos:station:SCCF:51:1,2009-07-05T22:00:00Z,26.5545,-82.1715,1.6,5.43,1111122 
SCCF RECON,ioos:station:SCCF:51:1,2009-07-05T23:00:00Z,26.5545,-82.1715,1.508,5.58,1111122 
SCCF RECON,ioos:station:SCCF:51:1,2009-07-06T00:00:00Z,26.5545,-82.1715,1.458,5.63,1111122 
SCCF RECON,ioos:station:SCCF:51:1,2009-07-06T01:00:00Z,26.5545,-82.1715,1.49,5.77,1111122 
SCCF RECON,ioos:station:SCCF:51:1,2009-07-06T02:00:00Z,26.5545,-82.1715,1.589,5.14,1111122 
SCCF RECON,ioos:station:SCCF:51:1,2009-07-06T03:00:00Z,26.5545,-82.1715,1.71,5.27,1111122 
SCCF RECON,ioos:station:SCCF:51:1,2009-07-06T04:00:00Z,26.5545,-82.1715,1.82,5.26,1111122 
SCCF RECON,ioos:station:SCCF:51:1,2009-07-06T05:00:00Z,26.5545,-82.1715,1.91,4.57,1111122 
SCCF RECON,ioos:station:SCCF:51:1,2009-07-06T06:00:00Z,26.5545,-82.1715,1.96,4.58,1111122 
SCCF RECON,ioos:station:SCCF:51:1,2009-07-06T07:00:00Z,26.5545,-82.1715,1.989,4.95,1111122 
SCCF RECON,ioos:station:SCCF:51:1,2009-07-06T08:00:00Z,26.5545,-82.1715,1.981,4.75,1111122 
SCCF RECON,ioos:station:SCCF:51:1,2009-07-06T09:00:00Z,26.5545,-82.1715,1.979,4.3,1111122 
SCCF RECON,ioos:station:SCCF:51:1,2009-07-06T10:00:00Z,26.5545,-82.1715,1.969,4.24,1111122 
SCCF RECON,ioos:station:SCCF:51:1,2009-07-06T11:00:00Z,26.5545,-82.1715,1.97,4.04,1111122 
SCCF RECON,ioos:station:SCCF:51:1,2009-07-06T12:00:00Z,26.5545,-82.1715,2.006,4.28,1111122 
SCCF RECON,ioos:station:SCCF:51:1,2009-07-06T13:00:00Z,26.5545,-82.1715,2.066,4.39,1111122 
SCCF RECON,ioos:station:SCCF:51:1,2009-07-06T14:00:00Z,26.5545,-82.1715,2.15,4.61,1111122 
SCCF RECON,ioos:station:SCCF:51:1,2009-07-06T15:00:00Z,26.5545,-82.1715,2.231,5.11,1111122 
SCCF RECON,ioos:station:SCCF:51:1,2009-07-06T16:00:00Z,26.5545,-82.1715,2.282,5.12,1111122 
SCCF RECON,ioos:station:SCCF:51:1,2009-07-06T17:00:00Z,26.5545,-82.1715,2.256,4.96,1111122 
SCCF RECON,ioos:station:SCCF:51:1,2009-07-06T18:00:00Z,26.5545,-82.1715,2.176,4.78,1111122 
SCCF RECON,ioos:station:SCCF:51:1,2009-07-06T19:00:00Z,26.5545,-82.1715,2.066,4.89,1111122 
SCCF RECON,ioos:station:SCCF:51:1,2009-07-06T20:00:00Z,26.5545,-82.1715,1.948,4.78,1111122 
SCCF RECON,ioos:station:SCCF:51:1,2009-07-06T21:00:00Z,26.5545,-82.1715,1.826,4.92,1111122 
SCCF RECON,ioos:station:SCCF:51:1,2009-07-06T22:00:00Z,26.5545,-82.1715,1.7,5.1,1111122 
SCCF RECON,ioos:station:SCCF:51:1,2009-07-06T23:00:00Z,26.5545,-82.1715,1.581,5.01,1111122 
SCCF RECON,ioos:station:SCCF:51:1,2009-07-07T00:00:00Z,26.5545,-82.1715,1.491,4.99,1111122 
SCCF RECON,ioos:station:SCCF:51:1,2009-07-07T01:00:00Z,26.5545,-82.1715,1.459,5.23,1111122 
SCCF RECON,ioos:station:SCCF:51:1,2009-07-07T02:00:00Z,26.5545,-82.1715,1.528,4.78,1111122 
SCCF RECON,ioos:station:SCCF:51:1,2009-07-07T03:00:00Z,26.5545,-82.1715,1.63,4.46,1111122 
SCCF RECON,ioos:station:SCCF:51:1,2009-07-07T04:00:00Z,26.5545,-82.1715,1.749,4.87,1111122 
SCCF RECON,ioos:station:SCCF:51:1,2009-07-07T05:00:00Z,26.5545,-82.1715,1.86,5.01,1111122 
SCCF RECON,ioos:station:SCCF:51:1,2009-07-07T06:00:00Z,26.5545,-82.1715,1.928,4.14,1111122 
SCCF RECON,ioos:station:SCCF:51:1,2009-07-07T07:00:00Z,26.5545,-82.1715,1.951,4.28,1111122 
SCCF RECON,ioos:station:SCCF:51:1,2009-07-07T08:00:00Z,26.5545,-82.1715,1.951,4.48,1111122 
SCCF RECON,ioos:station:SCCF:51:1,2009-07-07T09:00:00Z,26.5545,-82.1715,1.938,3.89,1111122 
SCCF RECON,ioos:station:SCCF:51:1,2009-07-07T10:00:00Z,26.5545,-82.1715,1.959,3.84,1111122 
SCCF RECON,ioos:station:SCCF:51:1,2009-07-07T11:00:00Z,26.5545,-82.1715,1.983,3.4,1111122 
SCCF RECON,ioos:station:SCCF:51:1,2009-07-07T12:00:00Z,26.5545,-82.1715,2.007,3.54,1111122 
SCCF RECON,ioos:station:SCCF:51:1,2009-07-07T13:00:00Z,26.5545,-82.1715,2.048,3.93,1111122 
SCCF RECON,ioos:station:SCCF:51:1,2009-07-07T14:00:00Z,26.5545,-82.1715,2.104,4.19,1111122 
SCCF RECON,ioos:station:SCCF:51:1,2009-07-07T15:00:00Z,26.5545,-82.1715,2.188,4.61,1111122 
SCCF RECON,ioos:station:SCCF:51:1,2009-07-07T16:00:00Z,26.5545,-82.1715,2.258,4.87,1111122 
SCCF RECON,ioos:station:SCCF:51:1,2009-07-07T17:00:00Z,26.5545,-82.1715,2.293,4.7,1111122 
SCCF RECON,ioos:station:SCCF:51:1,2009-07-07T18:00:00Z,26.5545,-82.1715,2.251,4.78,1111122 
SCCF RECON,ioos:station:SCCF:51:1,2009-07-07T19:00:00Z,26.5545,-82.1715,2.164,4.72,1111122 
SCCF RECON,ioos:station:SCCF:51:1,2009-07-07T20:00:00Z,26.5545,-82.1715,2.046,4.61,1111122 
SCCF RECON,ioos:station:SCCF:51:1,2009-07-07T21:00:00Z,26.5545,-82.1715,1.917,4.87,1111122 
SCCF RECON,ioos:station:SCCF:51:1,2009-07-07T22:00:00Z,26.5545,-82.1715,1.781,4.69,1111122 
SCCF RECON,ioos:station:SCCF:51:1,2009-07-07T23:00:00Z,26.5545,-82.1715,1.661,4.72,1111122 
SCCF RECON,ioos:station:SCCF:51:1,2009-07-08T00:00:00Z,26.5545,-82.1715,1.563,4.64,1111122 
SCCF RECON,ioos:station:SCCF:51:1,2009-07-08T01:00:00Z,26.5545,-82.1715,1.496,4.64,1111122 
SCCF RECON,ioos:station:SCCF:51:1,2009-07-08T02:00:00Z,26.5545,-82.1715,1.492,4.64,1111122 
SCCF RECON,ioos:station:SCCF:51:1,2009-07-08T03:00:00Z,26.5545,-82.1715,1.571,4.51,1111122 
SCCF RECON,ioos:station:SCCF:51:1,2009-07-08T04:00:00Z,26.5545,-82.1715,1.68,4.44,1111122 
SCCF RECON,ioos:station:SCCF:51:1,2009-07-08T05:00:00Z,26.5545,-82.1715,1.782,4.69,1111122 
SCCF RECON,ioos:station:SCCF:51:1,2009-07-08T06:00:00Z,26.5545,-82.1715,1.879,4.82,1111122 
SCCF RECON,ioos:station:SCCF:51:1,2009-07-08T07:00:00Z,26.5545,-82.1715,1.951,3.95,1111122 
SCCF RECON,ioos:station:SCCF:51:1,2009-07-08T08:00:00Z,26.5545,-82.1715,1.97,4.29,1111122 
SCCF RECON,ioos:station:SCCF:51:1,2009-07-08T09:00:00Z,26.5545,-82.1715,1.955,4.28,1111122 
SCCF RECON,ioos:station:SCCF:51:1,2009-07-08T10:00:00Z,26.5545,-82.1715,1.919,4.01,1111122 
SCCF RECON,ioos:station:SCCF:51:1,2009-07-08T11:00:00Z,26.5545,-82.1715,1.889,3.69,1111122 
SCCF RECON,ioos:station:SCCF:51:1,2009-07-08T12:00:00Z,26.5545,-82.1715,1.911,3.59,1111122 
SCCF RECON,ioos:station:SCCF:51:1,2009-07-08T13:00:00Z,26.5545,-82.1715,1.961,3.97,1111122 
SCCF RECON,ioos:station:SCCF:51:1,2009-07-08T14:00:00Z,26.5545,-82.1715,2.033,4.22,1111122 
SCCF RECON,ioos:station:SCCF:51:1,2009-07-08T15:00:00Z,26.5545,-82.1715,2.116,4.38,1111122 
SCCF RECON,ioos:station:SCCF:51:1,2009-07-08T16:00:00Z,26.5545,-82.1715,2.203,4.78,1111122 
SCCF RECON,ioos:station:SCCF:51:1,2009-07-08T17:00:00Z,26.5545,-82.1715,2.187,5.76,1111122 
SCCF RECON,ioos:station:SCCF:51:1,2009-07-08T18:00:00Z,26.5545,-82.1715,2.219,5.65,1111122 
SCCF RECON,ioos:station:SCCF:51:1,2009-07-08T19:00:00Z,26.5545,-82.1715,2.198,5.42,1111122 
SCCF RECON,ioos:station:SCCF:51:1,2009-07-08T20:00:00Z,26.5545,-82.1715,2.114,4.79,1111122 
SCCF RECON,ioos:station:SCCF:51:1,2009-07-08T21:00:00Z,26.5545,-82.1715,1.993,4.64,1111122 
SCCF RECON,ioos:station:SCCF:51:1,2009-07-08T22:00:00Z,26.5545,-82.1715,1.872,4.5,1111122 
SCCF RECON,ioos:station:SCCF:51:1,2009-07-08T23:00:00Z,26.5545,-82.1715,1.749,4.44,1111122 
SCCF RECON,ioos:station:SCCF:51:1,2009-07-09T00:00:00Z,26.5545,-82.1715,1.635,4.6,1111122 
SCCF RECON,ioos:station:SCCF:51:1,2009-07-09T01:00:00Z,26.5545,-82.1715,1.54,4.56,1111122 
SCCF RECON,ioos:station:SCCF:51:1,2009-07-09T02:00:00Z,26.5545,-82.1715,1.486,4.95,1111122 
SCCF RECON,ioos:station:SCCF:51:1,2009-07-09T03:00:00Z,26.5545,-82.1715,1.537,4.39,1111122 
SCCF RECON,ioos:station:SCCF:51:1,2009-07-09T04:00:00Z,26.5545,-82.1715,1.631,3.88,1111122 
SCCF RECON,ioos:station:SCCF:51:1,2009-07-09T05:00:00Z,26.5545,-82.1715,1.74,3.85,1111122 
SCCF RECON,ioos:station:SCCF:51:1,2009-07-09T06:00:00Z,26.5545,-82.1715,1.865,4.08,1111122 
SCCF RECON,ioos:station:SCCF:51:1,2009-07-09T07:00:00Z,26.5545,-82.1715,1.944,3.77,1111122 
SCCF RECON,ioos:station:SCCF:51:1,2009-07-09T08:00:00Z,26.5545,-82.1715,1.946,3.94,1111122 
SCCF RECON,ioos:station:SCCF:51:1,2009-07-09T09:00:00Z,26.5545,-82.1715,1.908,3.79,1111122 
SCCF RECON,ioos:station:SCCF:51:1,2009-07-09T10:00:00Z,26.5545,-82.1715,1.88,3.6,1111122 
SCCF RECON,ioos:station:SCCF:51:1,2009-07-09T11:00:00Z,26.5545,-82.1715,1.854,3.8,1111122 
SCCF RECON,ioos:station:SCCF:51:1,2009-07-09T12:00:00Z,26.5545,-82.1715,1.861,3.97,1111122 
SCCF RECON,ioos:station:SCCF:51:1,2009-07-09T13:00:00Z,26.5545,-82.1715,1.908,3.91,1111122 
SCCF RECON,ioos:station:SCCF:51:1,2009-07-09T14:00:00Z,26.5545,-82.1715,1.964,4.12,1111122 
SCCF RECON,ioos:station:SCCF:51:1,2009-07-09T15:00:00Z,26.5545,-82.1715,2.04,3.94,1111122 
SCCF RECON,ioos:station:SCCF:51:1,2009-07-09T20:00:00Z,26.5545,-82.1715,2.14,5.89,1111122 
SCCF RECON,ioos:station:SCCF:51:1,2009-07-09T21:00:00Z,26.5545,-82.1715,2.058,6.05,1111122 
SCCF RECON,ioos:station:SCCF:51:1,2009-07-09T22:00:00Z,26.5545,-82.1715,1.959,5.94,1111122 
SCCF RECON,ioos:station:SCCF:51:1,2009-07-09T23:00:00Z,26.5545,-82.1715,1.856,6.19,1111122 
SCCF RECON,ioos:station:SCCF:51:1,2009-07-10T00:00:00Z,26.5545,-82.1715,1.711,6.48,1111122 
SCCF RECON,ioos:station:SCCF:51:1,2009-07-10T01:00:00Z,26.5545,-82.1715,1.599,6.6,1111122 
SCCF RECON,ioos:station:SCCF:51:1,2009-07-10T02:00:00Z,26.5545,-82.1715,1.52,6.41,1111122 
SCCF RECON,ioos:station:SCCF:51:1,2009-07-10T03:00:00Z,26.5545,-82.1715,1.524,6.48,1111122 
SCCF RECON,ioos:station:SCCF:51:1,2009-07-10T04:00:00Z,26.5545,-82.1715,1.6,5.91,1111122 
SCCF RECON,ioos:station:SCCF:51:1,2009-07-10T05:00:00Z,26.5545,-82.1715,1.715,5.58,1111122 
SCCF RECON,ioos:station:SCCF:51:1,2009-07-10T06:00:00Z,26.5545,-82.1715,1.84,5.66,1111122 
SCCF RECON,ioos:station:SCCF:51:1,2009-07-10T07:00:00Z,26.5545,-82.1715,1.93,5.25,1111122 
SCCF RECON,ioos:station:SCCF:51:1,2009-07-10T08:00:00Z,26.5545,-82.1715,1.97,5.32,1111122 
SCCF RECON,ioos:station:SCCF:51:1,2009-07-10T09:00:00Z,26.5545,-82.1715,1.949,5.39,1111122 
SCCF RECON,ioos:station:SCCF:51:1,2009-07-10T10:00:00Z,26.5545,-82.1715,1.905,5.5,1111122 
SCCF RECON,ioos:station:SCCF:51:1,2009-07-10T11:00:00Z,26.5545,-82.1715,1.856,5.51,1111122 
SCCF RECON,ioos:station:SCCF:51:1,2009-07-10T12:00:00Z,26.5545,-82.1715,1.836,5.57,1111122 
SCCF RECON,ioos:station:SCCF:51:1,2009-07-10T13:00:00Z,26.5545,-82.1715,1.83,5.5,1111122 
SCCF RECON,ioos:station:SCCF:51:1,2009-07-10T14:00:00Z,26.5545,-82.1715,1.887,5.66,1111122 
SCCF RECON,ioos:station:SCCF:51:1,2009-07-10T15:00:00Z,26.5545,-82.1715,1.949,5.49,1111122 
SCCF RECON,ioos:station:SCCF:51:1,2009-07-10T16:00:00Z,26.5545,-82.1715,2.008,5.47,1111122 
SCCF RECON,ioos:station:SCCF:51:1,2009-07-10T17:00:00Z,26.5545,-82.1715,2.099,5.8,1111122 
SCCF RECON,ioos:station:SCCF:51:1,2009-07-10T18:00:00Z,26.5545,-82.1715,2.155,6.05,1111122 
SCCF RECON,ioos:station:SCCF:51:1,2009-07-10T19:00:00Z,26.5545,-82.1715,2.168,5.99,1111122 
SCCF RECON,ioos:station:SCCF:51:1,2009-07-10T20:00:00Z,26.5545,-82.1715,2.129,6.09,1111122 
SCCF RECON,ioos:station:SCCF:51:1,2009-07-10T21:00:00Z,26.5545,-82.1715,2.07,5.87,1111122 
SCCF RECON,ioos:station:SCCF:51:1,2009-07-10T22:00:00Z,26.5545,-82.1715,1.985,6.02,1111122 
SCCF RECON,ioos:station:SCCF:51:1,2009-07-10T23:00:00Z,26.5545,-82.1715,1.89,6.3,1111122 
SCCF RECON,ioos:station:SCCF:51:1,2009-07-11T00:00:00Z,26.5545,-82.1715,1.78,6.35,1111122 
SCCF RECON,ioos:station:SCCF:51:1,2009-07-11T01:00:00Z,26.5545,-82.1715,1.68,6.31,1111122 
SCCF RECON,ioos:station:SCCF:51:1,2009-07-11T02:00:00Z,26.5545,-82.1715,1.6,6.64,1111122 
SCCF RECON,ioos:station:SCCF:51:1,2009-07-11T03:00:00Z,26.5545,-82.1715,1.558,6.22,1111122 
SCCF RECON,ioos:station:SCCF:51:1,2009-07-11T04:00:00Z,26.5545,-82.1715,1.599,6.35,1111122 
SCCF RECON,ioos:station:SCCF:51:1,2009-07-11T05:00:00Z,26.5545,-82.1715,1.688,6.14,1111122 
SCCF RECON,ioos:station:SCCF:51:1,2009-07-11T06:00:00Z,26.5545,-82.1715,1.814,5.96,1111122 
SCCF RECON,ioos:station:SCCF:51:1,2009-07-11T07:00:00Z,26.5545,-82.1715,1.93,5.68,1111122 
SCCF RECON,ioos:station:SCCF:51:1,2009-07-11T08:00:00Z,26.5545,-82.1715,1.991,5.31,1111122 
SCCF RECON,ioos:station:SCCF:51:1,2009-07-11T09:00:00Z,26.5545,-82.1715,2.0,5.51,1111122 
SCCF RECON,ioos:station:SCCF:51:1,2009-07-11T10:00:00Z,26.5545,-82.1715,1.961,5.37,1111122 
SCCF RECON,ioos:station:SCCF:51:1,2009-07-11T11:00:00Z,26.5545,-82.1715,1.925,5.32,1111122 
SCCF RECON,ioos:station:SCCF:51:1,2009-07-11T12:00:00Z,26.5545,-82.1715,1.871,5.76,1111122 
SCCF RECON,ioos:station:SCCF:51:1,2009-07-11T13:00:00Z,26.5545,-82.1715,1.817,5.82,1111122 
SCCF RECON,ioos:station:SCCF:51:1,2009-07-11T14:00:00Z,26.5545,-82.1715,1.788,6.13,1111122 
SCCF RECON,ioos:station:SCCF:51:1,2009-07-11T15:00:00Z,26.5545,-82.1715,1.845,6.23,1111122 
SCCF RECON,ioos:station:SCCF:51:1,2009-07-11T16:00:00Z,26.5545,-82.1715,1.937,5.93,1111122 
SCCF RECON,ioos:station:SCCF:51:1,2009-07-11T17:00:00Z,26.5545,-82.1715,2.039,6.13,1111122 
SCCF RECON,ioos:station:SCCF:51:1,2009-07-11T18:00:00Z,26.5545,-82.1715,2.134,6.3,1111122 
SCCF RECON,ioos:station:SCCF:51:1,2009-07-11T19:00:00Z,26.5545,-82.1715,2.158,6.32,1111122 
SCCF RECON,ioos:station:SCCF:51:1,2009-07-11T20:00:00Z,26.5545,-82.1715,2.154,6.36,1111122 
SCCF RECON,ioos:station:SCCF:51:1,2009-07-11T21:00:00Z,26.5545,-82.1715,2.111,6.39,1111122 
SCCF RECON,ioos:station:SCCF:51:1,2009-07-11T22:00:00Z,26.5545,-82.1715,2.038,5.8,1111122 
SCCF RECON,ioos:station:SCCF:51:1,2009-07-11T23:00:00Z,26.5545,-82.1715,1.941,6.38,1111122 